Regional Weather Roundup
Issued by NWS State College, PA

Home | Current Version | Previous Version | Graphics & Text | Print | Product List | Glossary Off
Versions: 1 2 3 4 5 6 7 8 9 10 11 12 13 14 15 16 17 18 19 20 21 22 23 24 25 26 27 28 29 30 31 32 33 34 35 36 37 38 39 40 41 42 43 44 45 46 47 48 49 50

000
ASUS41 KCTP 171310
RWRCTP

REGIONAL WEATHER ROUNDUP
NATIONAL WEATHER SERVICE STATE COLLEGE PA
900 AM EDT TUE OCT 17 2017

Note: "fair" indicates few or no clouds below 12,000 feet with no
significant weather and/or obstructions to visibility.

* = STATION THAT DOES NOT REPORT PRECIPITATION /E.G. RAIN...SNOW...ETC/
    THUNDER OR FOG.

PAZ002>004-007>009-013>016-020>023-029>032-171400-
WESTERN PENNSYLVANIA

CITY           SKY/WX    TMP DP  RH WIND       PRES   REMARKS
ERIE           SUNNY     47  34  60 S15       30.29S
MEADVILLE      SUNNY     39  33  79 S7        30.32R
FRANKLIN*      SUNNY     38  37  97 SW5       30.34R
NEW CASTLE     FAIR      36  35  96 CALM      30.36R
BEAVER COUNTY  SUNNY     39  36  87 S3        30.35R
BUTLER*        SUNNY     39  35  86 CALM      30.36R
PITTSBURGH INT NOT AVBL
PITTSBURGH     SUNNY     39  37  92 S7        30.35R
INDIANA*       SUNNY     37  37 100 CALM      30.39R
LATROBE        SUNNY     37  37 100 CALM      30.38R
WASHINGTON CO* SUNNY     39  37  92 CALM      30.40R
$$

PAZ004>006-010>012-017>019-024>028-033>037-041-042-045-046-049>053-171400-
CENTRAL PENNSYLVANIA

CITY           SKY/WX    TMP DP  RH WIND       PRES   REMARKS
BRADFORD         N/A    N/A N/A N/A MISG      30.30
DUBOIS         SUNNY     35  32  88 CALM      30.33R
CLEARFIELD     NOT AVBL
JOHNSTOWN      SUNNY     40  34  79 SW5       30.34R
ALTOONA        SUNNY     43  37  79 SW5       30.36R
STATE COLLEGE  SUNNY     37  34  87 CALM      30.36R
WILLIAMSPORT   CLOUDY    39  36  89 NW5       30.37R
SELINSGROVE    SUNNY     39  37  92 CALM      30.38R
FT INDIANTOWN  NOT AVBL
CAPITAL CITY   SUNNY     45  36  70 CALM      30.38R
HARRISBURG     SUNNY     47  39  74 CALM      30.37R
YORK           SUNNY     42  39  89 CALM      30.38R
$$

PAZ038>040-043-044-047-048-054-055-060>062-067>071-171400-
EASTERN PENNSYLVANIA

CITY           SKY/WX    TMP DP  RH WIND       PRES   REMARKS
SCRANTON       SUNNY     40  33  76 CALM      30.36R
MOUNT POCONO   SUNNY     39  31  72 N12       30.29R
ALLENTOWN      SUNNY     43  33  68 W3        30.37R
QUAKERTOWN*    SUNNY     43  32  65 N3        30.37R
READING        SUNNY     43  39  86 CALM      30.37R
LANCASTER      SUNNY     44  38  79 W3        30.38R
COATESVILLE    SUNNY     45  34  65 N8        30.37R
POTTSTOWN      MOSUNNY   42  36  79 VRB3      30.38R
BLUE BELL      SUNNY     43  34  70 CALM      30.38R
DOYLESTOWN     SUNNY     42  33  70 N6        30.35R
WILLOW GROVE   NOT AVBL
NORTH PHILA    SUNNY     47  34  60 N10       30.38R
PHILADELPHIA   SUNNY     46  33  60 N8        30.37R
$$



USA.gov is the U.S. government's official web portal to all federal, state and local government web resources and services.